Theta_e
326 320 318 317 304 302 299 301 307 307 306 310 313 308 306 312 309 309 331 333 337 337 345 344 346 347 346 346 348 348 348 346 342 341 343 341 341 343 342 340 340 340 341 343 344 344 343 341 341
317 318 317 313 299 295 295 304 304 308 311 314 312 309 307 310 323 325 326 332 337 340 343 342 343 345 345 345 348 348 348 346 344 340 341 340 339 342 341 339 340 338 338 339 340 341 340 340 339
319 316 311 305 300 295 295 302 306 309 311 310 308 309 309 313 324 326 332 333 336 337 342 342 343 345 344 345 346 348 348 347 345 341 340 340 339 339 340 340 339 338 337 337 337 338 338 338 337
315 311 310 300 298 301 299 302 308 308 306 309 307 306 315 323 325 331 332 334 334 337 342 341 344 345 344 345 345 346 347 347 346 343 339 339 338 337 338 340 339 336 336 336 336 336 336 336 336
313 310 301 298 298 299 300 304 309 306 306 306 305 304 312 326 332 332 331 333 334 339 340 342 343 344 344 345 345 345 346 345 346 344 340 338 338 337 338 339 339 336 336 336 336 336 337 337 337
305 306 297 295 298 300 299 305 307 306 305 305 302 307 314 327 329 329 331 333 335 340 341 341 337 340 342 343 344 344 345 344 345 344 340 338 339 337 336 339 339 336 335 335 335 335 337 337 337
305 302 297 298 299 298 300 304 302 305 303 303 304 302 316 323 330 330 331 332 334 341 341 340 340 338 336 339 340 341 342 343 344 343 342 339 338 339 337 337 339 336 335 334 334 336 336 335 335
305 303 298 299 297 297 302 305 305 303 302 305 308 301 308 323 330 331 330 331 332 338 338 338 338 337 337 336 334 336 338 339 340 339 336 333 333 333 333 332 336 335 335 335 333 333 334 334 332
310 299 296 299 299 299 304 301 303 302 302 302 306 308 318 329 331 329 327 328 330 336 337 337 338 336 335 336 332 331 333 334 334 333 330 328 331 328 328 329 334 335 335 334 332 331 331 330 328
302 298 300 304 300 300 302 302 302 298 300 300 305 312 325 327 327 326 325 324 326 330 336 338 338 336 337 336 333 334 334 334 336 337 331 334 333 327 328 325 328 331 331 332 330 330 329 327 324
302 299 302 301 302 304 303 300 303 299 298 301 303 312 322 323 324 325 326 326 326 330 334 337 338 337 338 335 333 332 331 330 332 334 334 336 331 325 326 324 324 324 323 324 323 321 320 319 319
298 302 302 303 302 302 302 302 300 300 299 304 305 315 320 321 322 323 325 327 328 328 330 336 337 337 338 337 335 334 331 331 330 333 335 332 329 326 325 323 323 323 322 321 319 318 318 318 319
299 299 301 302 301 301 303 301 298 300 302 303 306 315 317 319 320 322 324 325 330 330 330 334 334 335 337 337 336 335 333 332 331 330 332 331 328 327 326 323 323 322 321 320 317 317 317 317 318
300 299 298 299 300 299 299 297 298 301 302 302 304 304 312 316 318 319 322 322 326 331 331 332 334 334 336 336 336 335 335 333 333 331 331 330 329 327 326 323 321 320 320 318 317 316 316 316 318
300 295 296 296 297 296 298 295 296 297 299 300 301 301 305 309 315 317 321 322 324 328 332 333 333 335 334 336 336 335 335 334 332 331 333 330 329 327 325 323 321 320 318 316 315 315 315 315 317
296 295 290 295 297 298 297 293 299 300 298 297 298 297 300 304 308 314 319 323 324 326 328 332 333 332 332 334 336 336 335 334 334 332 331 331 329 327 325 323 321 320 318 315 314 314 312 313 313
293 288 290 291 298 296 294 292 295 297 297 296 296 297 298 301 304 308 314 320 323 325 327 329 332 331 332 333 335 335 335 335 334 333 331 330 330 328 325 323 322 321 318 315 313 313 312 311 312
287 288 291 290 293 293 292 293 294 296 296 296 296 297 297 299 301 305 310 315 319 322 325 328 331 331 330 332 333 334 334 334 334 332 330 330 329 329 327 324 323 321 318 315 313 311 311 310 309
292 290 288 291 294 292 291 292 295 297 296 296 296 297 297 298 301 302 304 304 304 310 320 324 328 331 331 329 329 331 330 332 333 333 331 329 328 327 326 326 325 323 317 315 314 313 310 309 308
291 290 288 291 294 292 291 291 294 296 296 296 297 297 298 300 301 301 302 300 302 302 304 311 322 328 331 329 330 330 331 332 333 333 332 329 327 327 326 325 324 324 320 316 312 308 305 305 308
290 289 288 289 291 290 287 287 291 295 296 297 298 298 298 298 299 299 299 299 301 300 301 303 307 315 327 330 330 330 330 330 329 330 331 329 327 326 325 324 324 323 321 317 315 311 308 308 307
286 290 292 290 287 283 286 279 287 291 293 294 296 296 295 295 297 299 301 301 302 303 304 304 303 304 309 328 327 326 326 325 328 329 330 330 327 326 324 324 323 321 319 317 314 313 312 310 308
289 292 290 291 287 285 284 280 284 288 289 292 292 295 295 298 299 299 301 303 302 305 306 308 303 302 305 310 326 326 324 325 325 325 328 328 327 325 324 323 322 321 320 318 317 314 311 312 311
294 291 290 287 286 278 283 282 283 286 289 289 293 296 299 297 298 300 301 302 303 305 308 310 303 301 306 311 316 323 323 322 322 320 324 326 326 325 324 322 322 321 321 321 318 315 312 311 310
291 287 279 278 277 277 282 281 286 289 289 291 294 297 297 298 298 299 300 300 301 302 305 308 311 307 304 308 312 317 319 323 322 321 322 323 323 321 323 322 321 322 321 319 316 314 312 311 310
288 287 281 275 276 278 281 278 284 292 292 292 297 297 298 298 299 299 300 300 301 302 303 307 310 310 311 311 312 314 316 317 318 320 319 319 320 320 319 320 319 319 318 317 315 313 312 310 309
288 284 289 281 275 278 281 284 290 292 292 291 293 296 296 297 298 298 300 300 300 300 301 303 306 309 313 312 311 311 312 315 315 314 315 314 314 313 316 317 315 315 314 313 313 312 310 309 308
288 290 283 284 274 273 278 280 283 288 289 292 292 294 296 296 297 297 298 299 299 300 301 302 302 302 305 307 308 309 310 311 310 309 307 307 307 308 307 305 306 306 307 307 308 308 308 307 306
286 285 287 286 284 277 275 280 285 288 291 290 292 295 295 296 296 296 297 298 298 298 298 299 299 299 299 300 301 301 302 302 301 300 299 300 299 299 299 300 300 301 301 301 301 301 302 301 300
288 287 287 282 280 281 281 280 289 290 292 293 294 296 296 297 296 296 297 296 295 295 295 295 295 295 296 296 296 296 296 295 294 294 294 295 295 296 295 296 296 296 296 296 296 296 296 296 296
Wind_Speed
9 10 4 3 1 3 4 3 7 7 7 4 9 7 8 10 6 6 7 13 18 15 13 11 12 12 12 11 10 13 14 14 16 14 15 15 15 14 17 19 15 16 16 17 17 17 16 17 16
8 9 2 3 2 5 4 9 5 6 10 8 6 2 6 9 7 10 5 14 16 15 12 11 12 12 13 11 10 12 14 12 16 15 13 14 14 15 17 17 14 16 16 16 17 16 15 15 14
8 6 1 3 5 5 5 8 8 10 8 6 5 3 6 4 10 8 11 13 14 13 13 12 12 12 12 11 9 10 12 11 15 15 12 14 13 13 13 15 14 14 15 16 15 15 15 15 13
4 2 4 3 9 3 7 7 14 9 4 7 4 9 6 5 8 10 10 12 12 11 14 11 13 12 12 10 9 10 11 8 13 15 13 12 13 12 11 13 14 14 14 15 14 14 14 14 12
3 3 4 6 12 6 4 2 11 8 8 5 3 6 7 4 9 12 12 11 10 13 12 10 12 12 11 10 9 9 10 8 13 14 13 11 11 11 10 11 13 14 13 14 14 14 14 12 11
3 3 3 6 11 9 3 5 8 7 6 6 0 8 6 8 8 10 11 10 10 15 11 9 10 10 10 10 9 8 10 8 13 14 13 11 10 10 10 10 15 13 12 13 13 13 13 12 11
2 3 7 9 5 5 5 2 4 6 5 5 4 5 7 8 9 9 9 9 9 14 12 9 8 8 8 9 9 8 9 9 9 13 12 10 9 9 9 8 12 13 12 12 12 12 12 12 10
1 3 9 8 5 5 7 6 2 4 5 2 6 2 7 9 11 9 8 9 9 10 12 9 9 7 6 6 8 8 9 8 8 11 11 10 9 9 8 7 8 12 11 12 11 10 10 10 8
2 3 8 9 5 6 10 6 3 2 7 2 3 5 9 13 9 8 7 7 8 9 10 8 10 7 7 7 6 6 8 8 8 10 10 9 5 5 6 8 9 12 10 11 10 9 7 8 6
2 2 7 6 0 9 9 9 7 3 6 4 6 3 11 11 8 8 8 8 8 9 13 10 9 6 7 7 7 6 6 4 4 5 6 4 4 5 7 6 8 9 10 9 7 6 6 5 3
5 4 2 5 6 10 9 3 8 5 6 8 12 10 11 9 9 9 9 9 8 9 9 11 9 6 6 5 5 3 3 3 4 7 6 4 5 4 4 3 3 4 6 4 4 3 2 1 2
3 3 7 3 3 3 10 5 3 5 4 6 7 15 10 9 9 10 9 9 9 9 8 12 9 6 6 4 6 5 4 4 4 5 7 3 3 4 4 4 5 4 3 5 5 2 3 2 3
3 3 5 7 2 3 7 5 2 6 8 7 9 13 11 9 9 8 9 8 10 8 8 13 11 8 5 5 4 4 4 4 4 4 5 4 4 4 3 4 4 4 3 4 3 3 2 1 1
2 6 6 4 4 4 2 4 2 7 10 10 7 6 10 10 10 7 8 8 9 10 9 9 12 12 8 6 6 3 3 4 4 4 5 5 4 4 4 4 3 3 3 3 4 4 3 3 2
4 5 4 3 3 2 3 3 7 3 6 7 9 8 8 9 10 10 9 8 8 7 8 11 10 14 12 9 7 5 3 3 2 4 6 7 4 5 5 4 4 4 3 4 2 2 2 2 2
7 5 4 4 5 1 2 4 11 9 9 7 8 9 8 8 7 8 8 9 9 8 9 8 8 8 9 9 7 5 5 4 4 3 4 6 5 4 4 4 4 4 4 3 2 2 2 3 3
6 5 6 2 3 5 5 3 4 4 4 5 7 8 8 8 8 7 7 9 9 9 9 9 9 9 10 9 7 6 6 6 5 4 4 6 5 5 3 3 4 5 4 3 3 3 3 3 3
8 7 8 6 7 3 4 8 3 6 5 7 7 8 7 8 9 9 9 8 8 8 9 9 9 11 10 8 6 5 4 5 5 5 5 6 5 6 5 3 4 5 4 3 3 4 3 2 0
8 9 6 6 2 3 7 7 9 9 7 8 8 8 8 8 7 8 8 7 5 3 6 8 9 10 10 8 7 6 7 6 6 6 8 8 7 7 6 4 4 5 5 5 4 2 2 1 1
4 11 6 5 5 2 4 10 8 8 7 8 10 8 8 7 8 7 8 4 1 2 5 4 7 9 10 8 7 6 6 4 6 6 8 9 9 8 7 6 5 5 5 6 5 4 2 2 4
3 4 5 4 5 2 3 7 8 9 10 9 9 8 5 6 7 6 7 6 3 2 5 5 5 4 7 10 7 4 2 3 4 5 6 8 10 9 9 8 7 6 5 6 6 6 6 4 2
3 2 9 10 7 4 3 6 4 7 7 7 7 7 6 4 5 5 5 5 5 3 4 5 5 4 5 9 9 9 8 8 5 5 5 6 9 9 8 8 7 6 4 4 5 5 6 4 5
2 6 6 3 2 2 3 1 6 3 5 8 9 8 5 7 8 8 6 5 4 3 2 3 5 5 6 5 9 9 8 7 8 4 6 6 7 8 8 8 8 7 5 6 7 6 7 6 4
9 8 6 2 4 1 7 7 6 5 6 1 6 7 8 6 6 8 6 4 4 2 3 2 3 3 4 4 4 8 9 8 4 4 4 6 4 5 6 7 6 6 6 7 6 6 6 7 6
4 7 2 1 1 6 7 3 10 3 1 4 8 8 8 7 7 7 7 6 5 4 4 4 5 4 2 3 4 1 1 7 7 4 2 2 3 2 5 6 5 4 4 4 4 5 5 6 6
6 6 6 7 5 4 4 7 9 2 5 7 8 9 8 7 7 6 6 6 5 5 6 6 6 6 7 6 7 7 7 5 4 4 3 3 3 3 3 3 2 1 2 3 4 3 3 4 5
5 5 3 8 3 5 6 7 6 4 4 4 7 7 8 7 7 6 6 6 6 5 6 7 7 7 6 6 7 7 6 7 6 6 5 4 4 3 3 4 4 3 2 2 0 1 3 3 4
2 4 4 2 5 3 6 4 6 7 9 8 8 8 8 7 6 6 6 6 5 6 6 8 8 7 7 7 6 6 7 7 7 7 8 7 6 6 6 6 6 6 4 2 1 1 1 2 2
2 3 3 4 5 6 2 7 3 1 9 12 9 8 9 8 7 6 6 6 5 6 7 7 7 7 7 7 7 8 8 9 9 8 7 6 6 6 6 6 6 6 6 6 5 5 3 2 3
2 4 5 5 5 2 5 7 1 2 3 9 9 9 8 8 7 6 6 7 6 6 7 7 7 7 6 6 7 7 7 8 8 7 7 7 7 6 7 6 6 6 6 5 6 5 5 5 5
Wind_Direction
289 256 274 322 289 219 125 107 102 68 99 51 57 30 76 52 26 112 166 113 118 126 125 123 120 117 111 99 87 116 105 98 90 81 84 82 79 74 86 80 80 76 75 71 73 78 77 75 71
305 305 270 286 242 231 126 113 130 130 97 80 93 188 78 75 74 119 86 126 121 125 141 129 122 122 118 109 99 99 107 106 101 92 87 87 79 72 84 85 75 83 81 81 81 78 80 76 72
273 272 304 208 245 289 132 137 127 91 113 152 106 29 32 83 109 145 121 130 122 134 125 124 124 121 119 112 100 105 116 111 106 103 95 93 86 77 73 85 81 80 83 84 82 81 79 77 75
298 254 288 286 256 40 67 160 110 112 46 349 75 88 72 348 153 114 139 131 125 134 116 128 125 124 120 109 99 99 100 118 112 103 100 96 93 83 76 86 86 77 79 80 81 82 79 78 76
262 265 233 223 265 84 53 96 120 148 139 164 251 124 100 56 89 128 135 134 130 112 120 129 127 126 123 119 112 104 106 98 112 108 107 103 100 91 78 80 95 83 80 82 81 81 75 74 72
269 244 205 231 244 87 77 49 129 171 143 78 11 111 93 126 137 144 140 136 137 117 129 129 125 125 127 125 120 111 113 101 130 118 116 110 106 99 87 75 91 88 82 82 81 82 77 73 66
266 259 241 230 172 113 132 163 181 170 118 158 329 103 123 153 135 143 145 133 135 125 126 131 134 127 123 122 121 115 111 104 116 123 115 106 94 94 87 69 100 93 87 85 83 83 75 74 64
323 240 257 250 146 163 127 174 237 166 102 53 6 141 159 146 142 142 155 137 134 132 129 151 136 149 141 138 127 122 120 119 112 120 114 109 104 105 107 90 88 99 93 93 96 94 78 78 65
287 292 225 253 167 134 139 133 336 34 111 87 66 58 111 125 141 145 151 141 135 138 144 156 144 161 150 139 135 123 119 113 117 124 134 150 138 145 120 96 87 105 104 98 102 110 112 97 69
209 258 229 222 316 132 161 145 148 129 123 131 96 63 113 129 153 158 157 162 153 158 148 147 159 165 146 151 144 151 142 156 154 140 174 200 127 117 114 104 103 113 106 106 120 134 154 160 151
210 247 276 43 55 118 157 187 148 194 177 182 171 160 141 154 165 168 174 174 171 163 151 150 157 164 153 137 155 155 156 168 160 159 199 218 126 126 119 130 135 138 147 143 154 185 239 340 45
274 266 344 60 22 115 150 112 129 229 108 32 98 153 150 170 176 180 185 173 170 169 170 154 153 159 159 140 166 164 157 176 167 166 196 155 122 163 149 160 178 168 189 168 169 195 105 75 2
221 98 20 74 96 66 94 137 210 195 129 85 87 145 161 180 184 188 174 191 162 185 177 155 157 179 176 156 166 168 173 167 171 174 170 151 171 173 163 166 154 171 182 149 178 141 161 177 179
215 125 111 119 103 49 121 109 36 214 156 134 135 169 169 178 192 192 177 189 169 175 180 159 165 170 183 180 175 179 182 182 182 160 165 193 182 166 174 156 169 178 159 168 167 168 183 193 179
153 114 129 154 167 104 311 131 238 133 111 166 175 195 194 191 183 195 182 179 182 172 177 175 172 167 169 186 177 182 171 181 180 187 167 180 207 173 172 163 175 180 169 164 168 176 172 186 198
177 128 162 152 162 154 157 244 218 166 144 197 193 191 204 193 198 194 183 174 176 170 179 168 164 159 160 184 184 185 180 180 183 186 198 177 193 200 176 169 180 182 158 155 173 186 215 223 211
225 171 189 200 246 133 193 221 120 76 133 239 243 219 190 195 197 213 206 175 180 177 172 170 156 162 178 189 181 185 181 181 180 172 185 186 185 200 187 192 192 172 158 172 191 210 181 226 249
167 225 193 159 198 199 185 258 162 167 179 229 246 228 217 188 205 192 192 192 184 182 177 168 167 165 172 199 186 182 177 183 175 178 184 182 179 187 192 208 201 163 155 195 204 200 222 172 191
173 181 164 118 56 155 228 253 242 202 188 206 252 243 200 210 213 178 162 171 189 195 192 185 169 172 168 182 190 187 191 184 192 184 181 180 185 188 190 191 201 172 170 190 205 187 217 312 99
267 185 160 67 109 132 221 254 255 251 236 196 206 241 225 193 180 135 134 135 140 220 228 231 201 177 177 169 188 203 187 186 195 186 181 181 186 191 195 188 199 198 168 179 181 162 175 234 183
253 186 144 134 138 273 325 277 231 237 213 218 212 211 219 183 160 151 139 142 147 226 249 250 244 234 176 171 165 154 170 168 182 194 194 189 186 189 190 198 198 198 183 192 187 181 182 226 203
150 30 106 122 148 196 172 269 244 205 200 204 214 206 220 152 86 79 87 98 85 34 360 342 320 281 260 168 172 172 196 215 202 197 189 185 184 187 191 197 200 195 189 183 183 180 201 193 220
151 104 112 139 116 65 202 70 253 51 207 216 210 210 160 103 115 110 90 84 77 60 326 257 241 252 254 229 174 177 194 232 239 206 177 174 178 184 189 192 195 199 190 202 197 197 199 207 217
137 99 77 99 96 345 212 163 275 193 210 141 132 136 123 124 114 102 99 123 92 61 21 317 192 236 257 224 224 171 187 188 234 226 178 166 173 183 186 191 192 190 203 204 196 193 194 201 213
173 153 117 87 69 214 335 184 240 219 97 160 156 141 131 136 145 144 144 106 73 54 68 13 67 46 338 358 2 302 217 170 202 261 86 148 147 170 199 187 188 203 198 193 181 193 199 200 211
210 187 152 179 182 211 355 233 251 142 88 102 107 127 135 137 115 111 107 94 80 52 56 60 64 61 34 44 42 43 57 65 68 82 80 68 77 100 83 119 116 141 167 194 200 189 202 194 210
202 208 109 104 0 75 209 267 278 129 150 153 131 137 159 144 135 128 99 87 89 68 46 68 64 83 78 49 39 38 45 57 65 64 67 71 74 64 93 102 108 103 88 75 19 235 243 220 215
157 166 83 335 129 227 253 243 236 210 206 186 176 180 151 135 118 114 102 88 72 73 68 67 70 72 73 71 69 70 67 65 64 58 56 56 54 56 59 51 45 43 39 36 8 289 319 324 299
161 198 206 151 151 169 195 259 237 179 192 172 180 182 149 155 146 133 114 104 98 87 75 71 69 70 64 65 69 68 66 66 66 64 50 56 55 50 55 55 51 41 32 21 23 12 347 304 294
356 222 170 142 231 211 143 268 355 48 65 145 162 149 148 141 137 133 131 123 107 96 88 77 68 68 64 71 77 73 70 66 66 61 52 46 51 40 39 42 49 44 39 27 27 8 358 345 324